Tracking 19638 objects as of 19-Apr-2019
HD Live streaming from Space Station
objects crossing your sky now

METEOR 2-5 DEB

Track METEOR 2-5 DEB now!
10-day predictions


NORAD ID: 36898
Int'l Code: 1979-095AP
Perigee: 532.7 km
Apogee: 534.3 km
Inclination: 81.2 °
Period: 95.2 minutes
Semi major axis: 6904 km
RCS: 0.0124 m2 (small)
Launch date: October 31, 1979
Source: Commonwealth of Independent States (former USSR) (CIS)
Launch site: PLESETSK MISSILE AND SPACE COMPLEX (PKMTR)

Note: This is SATELLITE DEBRIS
aabbcc
Your satellite tracking list
Your tracking list is empty




NASA's NSSDC Master Catalog

Two Line Element Set (TLE):
1 36898U 79095AP  19108.57557006  .00010115  00000-0  56805-3 0  9993
2 36898  81.1791  50.9965 0001130 199.1043 287.2726 15.13224827818544
Source of the keplerian elements: AFSPC